カタログに戻る

COSMOS 2091

運用中軍事PO
NORAD 20736·PAYLOAD·🇷🇺 Russia

打ち上げ Aug 8, 1990 から Plesetsk Cosmodrome

Loading…

次のパス (今後24時間)

TLE

最新Source: Space-Track

元期: Sep 14, 2026, 12:30 UTC

1 20736U 90070B   26257.52149594  .00000010  00000-0 -11967-5 0  9996
2 20736  82.5726 271.1300 0002285 267.0325 247.6309 12.62561756663586

AllMySatでCOSMOS 2091をリアルタイム追跡

Download on the App Store